Location: Alvediston
(51.0078°N, 2.0364°W)
Time: 18:47:55
(UTC+00:00)

Cosmos 1937 Rocket - Pass Details

Date: 27 February 2020
Orbit: 747 x 780 km, 74.0° (Epoch: 28 March)

Event Time Altitude Azimuth Distance (km) Brightness Sun altitude
Rises 19:45:13 0° 331° (NNW) 3,256 7.3 -19.7°
Reaches altitude 10° 19:47:40 10° 326° (NW) 2,319 6.6 -20.0°
Maximum altitude 19:52:41 47° 254° (WSW) 1,014 4.5 -20.8°
Drops below altitude 10° 19:57:37 10° 182° (S) 2,282 5.8 -21.6°
Enters shadow 19:59:19 - 178° (S) 2,924 6.3 -21.8°
